| time (UTC) | temp F | wind direction | speed MPH | gust MPH | rain 1hr in | rain 24hr in | rain mn in | humidity % | barometer mb |
| 20260502230016 | 72 | 180 | 3.0 | 9.0 | 0.00 | 0.00 | 0.00 | 13 | 1016.7 |
| 20260502223016 | 72 | 180 | 2.0 | 9.0 | 0.00 | 0.00 | 0.00 | 15 | 1016.9 |
| 20260502220016 | 71 | 180 | 3.0 | 13.0 | 0.00 | 0.00 | 0.00 | 15 | 1017.8 |
| 20260502213056 | 70 | 203 | 2.0 | 11.0 | 0.00 | 0.00 | 0.00 | 18 | 1018.2 |
| 20260502210016 | 70 | 225 | 2.0 | 12.0 | 0.00 | 0.00 | 0.00 | 18 | 1019.0 |
| 20260502203056 | 70 | 203 | 2.0 | 9.0 | 0.00 | 0.00 | 0.00 | 17 | 1019.4 |
| 20260502200016 | 69 | 203 | 2.0 | 9.0 | 0.00 | 0.00 | 0.00 | 17 | 1019.9 |
| 20260502193016 | 67 | 180 | 3.0 | 9.0 | 0.00 | 0.00 | 0.00 | 18 | 1019.9 |
| 20260502190016 | 66 | 203 | 3.0 | 10.0 | 0.00 | 0.00 | 0.00 | 24 | 1020.1 |
| 20260502183016 | 64 | 203 | 3.0 | 9.0 | 0.00 | 0.00 | 0.00 | 30 | 1020.5 |
| 20260502163016 | 58 | 180 | 1.0 | 3.0 | 0.00 | 0.00 | 0.00 | 44 | 1020.8 |
| 20260502123017 | 45 | 90 | 2.0 | 4.0 | 0.00 | 0.00 | 0.00 | 46 | 1019.8 |
| 20260502113017 | 46 | 45 | 2.0 | 4.0 | 0.00 | 0.00 | 0.00 | 46 | 1019.8 |
| 20260502110017 | 47 | 45 | 1.0 | 3.0 | 0.00 | 0.00 | 0.00 | 42 | 1020.1 |
| 20260502103017 | 48 | 45 | 2.0 | 4.0 | 0.00 | 0.00 | 0.00 | 44 | 1020.2 |
| 20260502070056 | 51 | 68 | 2.0 | 6.0 | 0.00 | 0.00 | 0.00 | 39 | 1019.7 |
| 20260502063016 | 51 | 68 | 2.0 | 4.0 | 0.00 | 0.00 | 0.00 | 39 | 1019.0 |
| 20260502060016 | 53 | 68 | 2.0 | 4.0 | 0.00 | 0.00 | 0.00 | 36 | 1019.1 |
| 20260502053018 | 54 | 90 | 2.0 | 4.0 | 0.00 | 0.00 | 0.00 | 38 | 1019.0 |
| 20260502050017 | 53 | 90 | 2.0 | 7.0 | 0.00 | 0.00 | 0.00 | 39 | 1018.3 |
| 20260502043017 | 53 | 90 | 2.0 | 6.0 | 0.00 | 0.00 | 0.00 | 40 | 1017.9 |
| 20260502040057 | 54 | 23 | 1.0 | 4.0 | 0.00 | 0.00 | 0.00 | 39 | 1017.8 |
| 20260502033017 | 56 | 23 | 1.0 | 4.0 | 0.00 | 0.00 | 0.00 | 40 | 1017.4 |
| 20260502030017 | 58 | 0 | 2.0 | 11.0 | 0.00 | 0.00 | 0.00 | 36 | 1016.5 |
| 20260502023057 | 59 | 338 | 6.0 | 18.0 | 0.00 | 0.00 | 0.00 | 33 | 1015.9 |
| 20260502020057 | 61 | 338 | 7.0 | 18.0 | 0.00 | 0.00 | 0.00 | 30 | 1015.7 |
| 20260502013017 | 63 | 338 | 7.0 | 16.0 | 0.00 | 0.00 | 0.00 | 31 | 1015.8 |
| 20260502010037 | 64 | 315 | 6.0 | 15.0 | 0.00 | 0.00 | 0.00 | 30 | 1016.1 |
| 20260502003017 | 65 | 315 | 6.0 | 21.0 | 0.00 | 0.00 | 0.00 | 29 | 1016.2 |
| 20260502000016 | 66 | 315 | 4.0 | 14.0 | 0.00 | 0.00 | 0.00 | 25 | 1016.4 |
| 20260501233017 | 65 | 315 | 5.0 | 14.0 | 0.00 | 0.00 | 0.00 | 26 | 1016.8 |